Overview Statistics Trail Chart Weather Telemetry Raw packets
 

This is the latest recevied weather packets stored in our database for station/object K0CVS. If no packets are shown the sender has not sent any weather packets the latest 10 day(s).

<< 103 104 105 106 107 108 109 >>
Time Temp. Humidity Pressure Rain* Wind** Luminosity Snow
1787786296 30° C 53% 1015.9 hPa 0 mm - 47 W/m² -
1787785992 30° C 53% 1016.1 hPa 0 mm - 51 W/m² -
1787785692 30° C 53% 1016.1 hPa 0 mm - 54 W/m² -
1787785387 30° C 52% 1016.1 hPa 0 mm - 57 W/m² -
1787785086 30° C 51% 1016 hPa 0 mm - 58 W/m² -
1787784781 30° C 51% 1016.2 hPa 0 mm - 66 W/m² -
1787784480 30.56° C 51% 1016.2 hPa 0 mm - 58 W/m² -
1787784175 30.56° C 50% 1016.1 hPa 0 mm - 55 W/m² -
1787783871 30.56° C 49% 1016.3 hPa 0 mm - 53 W/m² -
1787783567 30.56° C 49% 1016.3 hPa 0 mm - 51 W/m² -
1787783261 31.11° C 49% 1016.2 hPa 0 mm - 57 W/m² -
1787782956 31.11° C 48% 1016.5 hPa 0 mm - 62 W/m² -
1787782656 31.11° C 47% 1016.4 hPa 0 mm - 69 W/m² -
1787782351 31.11° C 47% 1016.4 hPa 0 mm - 65 W/m² -
1787782047 31.11° C 48% 1016.4 hPa 0 mm - 63 W/m² -
1787781742 31.67° C 47% 1016.5 hPa 0 mm - 57 W/m² -
1787781440 31.67° C 47% 1016.7 hPa 0 mm - 55 W/m² -
1787781140 31.67° C 47% 1016.7 hPa 0 mm - 63 W/m² -
1787780838 31.67° C 49% 1016.8 hPa 0 mm - 71 W/m² -
1787780532 31.67° C 48% 1016.5 hPa 0 mm - 61 W/m² -
1787780228 31.67° C 46% 1016.8 hPa 0 mm - 68 W/m² -
1787779923 31.67° C 46% 1016.9 hPa 0 mm - 176 W/m² -
1787779617 31.67° C 45% 1016.9 hPa 0 mm - 280 W/m² -
1787779311 32.78° C 45% 1016.9 hPa 0 mm - 101 W/m² -
1787779006 32.78° C 44% 1017.1 hPa 0 mm - 323 W/m² -

* Rain latest hour (hover to see other rain measurements)
** Current wind speed in m/s (hover to see current wind gust speed)